Weather History for KFKS - February, 2013

Change the Weather History Date:

Sunday, February 24, 2013

  Actual Average (KTVC) Record (KTVC)
Temperature  
Mean Temperature 26 °F 24 °F  
Max Temperature 34 °F 33 °F 50 °F (1976)
Min Temperature 19 °F 16 °F -14 °F (1913)
Degree Days  
Heating Degree Days 38 41  
Month to date heating degree days 1025  
Since 1 July heating degree days 5181  
Moisture  
Dew Point 25 °F    
Average Humidity 82    
Maximum Humidity 94    
Minimum Humidity 73    
Precipitation  
Precipitation 0.00 in 0.06 in 0.74 in (1949)
Month to date precipitation 1.29  
Year to date precipitation 4.11  
Sea Level Pressure  
Sea Level Pressure 30.00 in    
Wind  
Wind Speed 6 mph (NW)    
Max Wind Speed 12 mph    
Max Gust Speed -    
Visibility 9 miles    
Events Snow    
T = Trace of Precipitation, MM = Missing Value Source: NWS Daily Summary

Daily Weather History Graph

Daily Weather History Graph

Search for Another Location

Airport or City:

Trip Planner

Search our weather history database for the weather conditions in past years. The results will help you decide how hot, cold, wet, or windy it might be!

Date:

Astronomy

Feb. 24, 2013 Rise Set
Actual Time 7:30 AM EST 6:26 PM EST
Civil Twilight 7:00 AM EST 6:55 PM EST
Nautical Twilight 6:27 AM EST 7:29 PM EST
Astronomical Twilight 5:53 AM EST 8:03 PM EST
Moon 5:36 PM EST (2/24) 6:28 AM EST (2/24)
Length of Visible Light 11h 54m
Length of Day
10h 55m
Waxing Gibbous, 99% of the Moon is Illuminated
Feb 24
Waxing Gibbous
Feb 25
Full
Mar 4
Last Quarter
Mar 11
New
Mar 19
First Quarter

Hourly Weather History & Observations

Time (EST) Temp. Windchill Dew Point Humidity Pressure Visibility Wind Dir Wind Speed Gust Speed Precip Events Conditions
12:16 AM 30.7 °F 24.1 °F 26.2 °F 83% 29.82 in 10.0 mi West 6.9 mph - N/A Snow Light Snow
12:31 AM 30.7 °F 23.3 °F 26.6 °F 85% 29.82 in 10.0 mi West 8.1 mph - N/A Snow Light Snow
12:51 AM 30.6 °F 21.8 °F 27.1 °F 87% 29.82 in 7.0 mi WNW 10.4 mph - N/A Snow Light Snow
1:52 AM 30.9 °F 25.2 °F 27.0 °F 85% 29.83 in 10.0 mi WNW 5.8 mph - N/A   Overcast
2:12 AM 30.7 °F 24.9 °F 27.0 °F 86% 29.83 in 10.0 mi WNW 5.8 mph - N/A Snow Light Snow
2:32 AM 30.7 °F 26.0 °F 27.1 °F 86% 29.84 in 10.0 mi NW 4.6 mph - N/A Snow Light Snow
2:52 AM 31.1 °F 25.4 °F 27.5 °F 87% 29.84 in 10.0 mi NW 5.8 mph - N/A   Overcast
3:12 AM 31.1 °F 25.4 °F 27.1 °F 85% 29.84 in 10.0 mi NW 5.8 mph - N/A   Overcast
3:32 AM 31.1 °F 23.1 °F 27.1 °F 85% 29.84 in 7.0 mi NW 9.2 mph - N/A Snow Light Snow
3:52 AM 31.3 °F 22.1 °F 27.3 °F 85% 29.85 in 7.0 mi NW 11.5 mph - N/A Snow Light Snow
4:12 AM 31.1 °F 23.1 °F 26.8 °F 84% 29.85 in 10.0 mi NW 9.2 mph - N/A   Overcast
4:33 AM 31.1 °F 23.7 °F 27.3 °F 86% 29.85 in 10.0 mi NW 8.1 mph - N/A Snow Light Snow
5:13 AM 30.9 °F 22.8 °F 27.1 °F 86% 29.87 in 10.0 mi NNW 9.2 mph - N/A   Overcast
5:33 AM 30.9 °F 22.2 °F 26.4 °F 83% 29.88 in 10.0 mi NW 10.4 mph - N/A   Overcast
5:53 AM 30.6 °F 22.4 °F 25.5 °F 82% 29.89 in 10.0 mi NNW 9.2 mph - N/A   Overcast
6:13 AM 30.2 °F 21.9 °F 24.8 °F 80% 29.90 in 10.0 mi NW 9.2 mph - N/A   Overcast
6:33 AM 30.2 °F 21.3 °F 24.6 °F 80% 29.90 in 10.0 mi NW 10.4 mph - N/A   Overcast
6:53 AM 29.5 °F 24.5 °F 23.9 °F 80% 29.91 in 10.0 mi NNW 4.6 mph - N/A   Mostly Cloudy
7:13 AM 29.7 °F 22.0 °F 23.9 °F 79% 29.92 in 10.0 mi NNW 8.1 mph - N/A   Mostly Cloudy
7:34 AM 29.5 °F 22.5 °F 22.8 °F 76% 29.93 in 10.0 mi NW 6.9 mph - N/A   Mostly Cloudy
7:54 AM 28.4 °F 22.2 °F 22.5 °F 78% 29.94 in 10.0 mi NNW 5.8 mph - N/A   Scattered Clouds
8:14 AM 28.9 °F 21.9 °F 23.5 °F 80% 29.95 in 10.0 mi NNW 6.9 mph - N/A   Mostly Cloudy
8:34 AM 29.5 °F 23.4 °F 24.1 °F 80% 29.96 in 10.0 mi NW 5.8 mph - N/A   Mostly Cloudy
8:54 AM 30.6 °F 24.7 °F 25.2 °F 80% 29.96 in 10.0 mi NW 5.8 mph - N/A   Overcast
9:14 AM 30.7 °F 23.3 °F 25.2 °F 80% 29.97 in 10.0 mi NW 8.1 mph - N/A   Overcast
9:34 AM 30.9 °F 23.5 °F 25.5 °F 80% 29.98 in 10.0 mi NW 8.1 mph - N/A   Overcast
9:54 AM 31.5 °F 24.2 °F 25.7 °F 79% 29.98 in 10.0 mi NW 8.1 mph - N/A   Overcast
10:15 AM 31.6 °F 26.0 °F 25.7 °F 79% 29.99 in 10.0 mi NNW 5.8 mph - N/A   Overcast
10:35 AM 32.4 °F 26.0 °F 26.6 °F 79% 30.00 in 10.0 mi NW 6.9 mph - N/A   Scattered Clouds
10:55 AM 33.4 °F 29.1 °F 27.1 °F 78% 30.01 in 10.0 mi NNW 4.6 mph - N/A   Scattered Clouds
11:15 AM 33.3 °F 26.4 °F 27.3 °F 79% 30.01 in 10.0 mi NW 8.1 mph - N/A   Mostly Cloudy
11:35 AM 32.7 °F 25.0 °F 26.1 °F 76% 30.02 in 10.0 mi NNW 9.2 mph - N/A   Overcast
11:55 AM 33.4 °F 27.3 °F 25.9 °F 74% 30.02 in 10.0 mi NNW 6.9 mph - N/A   Mostly Cloudy
12:15 PM 33.3 °F 28.9 °F 25.5 °F 73% 30.02 in 10.0 mi North 4.6 mph - N/A   Mostly Cloudy
12:35 PM 33.8 °F 28.6 °F 25.9 °F 73% 30.03 in 10.0 mi North 5.8 mph - N/A   Mostly Cloudy
12:56 PM 33.8 °F 27.0 °F 25.9 °F 73% 30.04 in 10.0 mi NW 8.1 mph - N/A   Mostly Cloudy
1:16 PM 33.4 °F 27.3 °F 25.5 °F 73% 30.03 in 10.0 mi NW 6.9 mph - N/A   Mostly Cloudy
1:36 PM 33.3 °F 27.1 °F 25.5 °F 73% 30.04 in 10.0 mi NW 6.9 mph - N/A   Mostly Cloudy
1:56 PM 32.4 °F 24.6 °F 26.1 °F 78% 30.03 in 10.0 mi WNW 9.2 mph - N/A   Mostly Cloudy
2:16 PM 33.3 °F 28.9 °F 25.7 °F 74% 30.03 in 10.0 mi NNW 4.6 mph - N/A   Mostly Cloudy
2:31 PM 33.1 °F 30.0 °F 25.3 °F 73% 30.04 in 10.0 mi NW 3.5 mph - N/A   Mostly Cloudy
2:51 PM 33.6 °F 27.5 °F 26.6 °F 75% 30.04 in 10.0 mi West 6.9 mph - N/A   Mostly Cloudy
3:11 PM 33.4 °F 26.6 °F 27.0 °F 77% 30.04 in 10.0 mi West 8.1 mph - N/A   Overcast
3:31 PM 34.0 °F 26.6 °F 26.6 °F 74% 30.05 in 10.0 mi West 9.2 mph - N/A   Overcast
3:52 PM 33.6 °F 26.8 °F 26.8 °F 76% 30.06 in 10.0 mi West 8.1 mph - N/A   Mostly Cloudy
4:12 PM 32.5 °F 25.5 °F 26.1 °F 77% 30.07 in 10.0 mi West 8.1 mph - N/A   Mostly Cloudy
4:32 PM 32.9 °F 26.7 °F 25.5 °F 74% 30.08 in 10.0 mi West 6.9 mph - N/A   Overcast
4:52 PM 32.4 °F 25.3 °F 26.2 °F 78% 30.08 in 10.0 mi WNW 8.1 mph - N/A   Overcast
5:12 PM 32.2 °F 26.7 °F 26.6 °F 80% 30.08 in 10.0 mi WNW 5.8 mph - N/A   Overcast
5:32 PM 32.0 °F 27.5 °F 26.2 °F 79% 30.08 in 10.0 mi West 4.6 mph - N/A   Overcast
5:52 PM 32.0 °F 28.7 °F 26.2 °F 79% 30.09 in 10.0 mi West 3.5 mph - N/A   Overcast
6:13 PM 31.1 °F 27.7 °F 25.9 °F 81% 30.09 in 10.0 mi West 3.5 mph - N/A   Overcast
6:53 PM 29.8 °F - 25.9 °F 85% 30.10 in 10.0 mi Calm Calm - N/A   Overcast
7:13 PM 29.3 °F - 26.1 °F 88% 30.10 in 10.0 mi Calm Calm - N/A   Overcast
7:33 PM 29.7 °F - 26.4 °F 88% 30.10 in 10.0 mi Calm Calm - N/A   Overcast
7:53 PM 28.9 °F - 25.9 °F 88% 30.11 in 10.0 mi Calm Calm - N/A   Mostly Cloudy
8:13 PM 28.2 °F - 25.2 °F 88% 30.11 in 10.0 mi Calm Calm - N/A   Mostly Cloudy
8:33 PM 27.7 °F - 25.2 °F 90% 30.11 in 10.0 mi Calm Calm - N/A   Mostly Cloudy
8:54 PM 28.0 °F - 25.5 °F 90% 30.12 in 10.0 mi Calm Calm - N/A   Scattered Clouds
9:14 PM 26.4 °F - 24.3 °F 92% 30.12 in 10.0 mi Calm Calm - N/A   Clear
9:34 PM 24.6 °F - 22.5 °F 91% 30.13 in 10.0 mi Calm Calm - N/A   Clear
9:54 PM 23.0 °F - 21.2 °F 93% 30.12 in 7.0 mi Calm Calm - N/A   Clear
10:14 PM 22.6 °F - 21.0 °F 93% 30.13 in 5.0 mi Calm Calm - N/A   Clear
10:34 PM 19.9 °F - 18.3 °F 93% 30.13 in 1.2 mi Calm Calm - N/A   Mist
10:54 PM 20.8 °F - 19.2 °F 93% 30.13 in 1.5 mi Calm Calm - N/A   Mist
11:15 PM 20.1 °F - 18.7 °F 94% 30.12 in 3.0 mi Calm Calm - N/A   Clear
11:35 PM 19.6 °F - 18.0 °F 93% 30.12 in 1.0 mi Calm Calm - N/A   Mist
11:55 PM 19.4 °F - 17.8 °F 93% 30.12 in 3.0 mi Calm Calm - N/A   Clear